Powrót do katalogu

STARLINK-3751

AktywnyŁącznośćVLEO
NORAD 52289·PAYLOAD·🇺🇸 United States

Wystrzelony Apr 21, 2022 z Cape Canaveral Space Force Station

Loading…

Następne Przeloty (najbliższe 24 godziny)

TLE

ŚwieżeSource: CelesTrak SupGP

Epoka: Sep 15, 2026, 01:20 UTC

1 52289C 22041AE  26258.05604167  .00037628  00000+0  12101-2 0  2587
2 52289  53.1594 317.1445 0001161  89.6597  88.7597 15.31680179    19

Śledź STARLINK-3751 w czasie rzeczywistym z AllMySat

Download on the App Store